Tracking 19709 objects as of 19-Jun-2019
HD Live streaming from Space Station
objects crossing your sky now

WESTFORD NEEDLES

Track WESTFORD NEEDLES now!
10-day predictions
WESTFORD NEEDLES is classified as:


NORAD ID: 19051
Int'l Code: 1963-014EA
Perigee: 2,789.7 km
Apogee: 4,472.1 km
Inclination: 87.2 °
Period: 165.9 minutes
Semi major axis: 10001 km
RCS: 0.357 m2 (medium)
Launch date: May 9, 1963
Source: United States (US)
Launch site: AIR FORCE WESTERN TEST RANGE (AFWTR)
aabbcc
Your satellite tracking list
Your tracking list is empty




NASA's NSSDC Master Catalog

Two Line Element Set (TLE):
1 19051U 63014EA  19169.09376572 +.00001453 +00000-0 +46316+0 0  9997
2 19051 087.2040 046.6818 0841052 123.8825 244.4945 08.67924350221675
Source of the keplerian elements: AFSPC